Weather History for Naples, Italy

Change the Weather History Date:

Wednesday, April 25, 2012

  Actual Average Record
Temperature  
Mean Temperature 58 °F -  
Max Temperature 64 °F 72 °F 82 °F (2013)
Min Temperature 53 °F 53 °F 46 °F (1997)
Degree Days  
Heating Degree Days 6    
Growing Degree Days 8 (Base 50)    
Moisture  
Dew Point 47 °F    
Average Humidity 65    
Maximum Humidity 82    
Minimum Humidity 48    
Precipitation  
Precipitation 0.00 in 0.07 in - ()
Sea Level Pressure  
Sea Level Pressure 29.99 in    
Wind  
Wind Speed 7 mph ()    
Max Wind Speed 17 mph    
Max Gust Speed 29 mph    
Visibility 6.2 miles    
Events Rain    
Averages and records for this station are not official NWS values.
T = Trace of Precipitation, MM = Missing Value Source: Averaged Metar Reports

Daily Weather History Graph

Daily Weather History Graph

Search for Another Location

Airport:

Trip Planner

Search our weather history database for the weather conditions in past years. The results will help you decide how hot, cold, wet, or windy it might be!

Date:

Astronomy

Apr. 25, 2012 Rise Set
Actual Time 6:08 AM CEST 7:53 PM CEST
Civil Twilight 5:39 AM CEST 8:22 PM CEST
Nautical Twilight 5:04 AM CEST 8:58 PM CEST
Astronomical Twilight 4:26 AM CEST 9:36 PM CEST
Moon 8:38 AM CEST (4/25) 11:47 PM CEST (4/25)
Length of Visible Light 14h 43m
Length of Day
13h 44m
Waxing Crescent, 14% of the Moon is Illuminated
Apr 25
Waxing Crescent
Apr 29
First Quarter
May 6
Full
May 12
Last Quarter
May 21
New

Hourly Weather History & Observations

Time (CEST) Temp. Dew Point Humidity Pressure Visibility Wind Dir Wind Speed Gust Speed Precip Events Conditions
12:50 AM 57.2 °F 51.8 °F 82% 29.83 in 5.0 mi West 17.3 mph 28.8 mph N/A Rain Rain
1:50 AM 55.4 °F 48.2 °F 77% 29.83 in 6.2 mi West 10.4 mph - N/A   Scattered Clouds
2:20 AM 55.4 °F 48.2 °F 77% 29.86 in 6.2 mi South 4.6 mph - N/A   Scattered Clouds
2:50 AM 55.4 °F 50.0 °F 82% 29.86 in 6.2 mi South 3.5 mph - N/A   Scattered Clouds
3:20 AM 55.4 °F 48.2 °F 77% 29.86 in 6.2 mi SSW 3.5 mph - N/A   Scattered Clouds
3:50 AM 55.4 °F 46.4 °F 72% 29.86 in 6.2 mi SW 4.6 mph - N/A   Scattered Clouds
4:20 AM 55.4 °F 46.4 °F 72% 29.86 in 6.2 mi WSW 8.1 mph - N/A   Partly Cloudy
4:50 AM 55.4 °F 46.4 °F 72% 29.86 in 6.2 mi SW 3.5 mph - N/A   Partly Cloudy
5:20 AM 55.4 °F 46.4 °F 72% 29.89 in 6.2 mi SW 4.6 mph - N/A   Partly Cloudy
5:50 AM 55.4 °F 46.4 °F 72% 29.89 in 6.2 mi SW 4.6 mph - N/A   Scattered Clouds
6:20 AM 53.6 °F 46.4 °F 77% 29.92 in 6.2 mi WSW 4.6 mph - N/A   Partly Cloudy
6:50 AM 53.6 °F 48.2 °F 82% 29.92 in - Variable 2.3 mph - N/A   Clear
7:20 AM 55.4 °F 48.2 °F 77% 29.95 in - WSW 5.8 mph - N/A   Clear
7:50 AM 57.2 °F 48.2 °F 72% 29.95 in - WSW 6.9 mph - N/A   Clear
8:50 AM 59.0 °F 50.0 °F 72% 29.98 in 6.2 mi West 6.9 mph - N/A   Scattered Clouds
9:20 AM 60.8 °F 50.0 °F 68% 29.98 in 6.2 mi WNW 8.1 mph - N/A   Scattered Clouds
9:50 AM 60.8 °F 48.2 °F 63% 30.01 in 6.2 mi WNW 10.4 mph - N/A   Scattered Clouds
10:20 AM 60.8 °F 48.2 °F 63% 30.01 in 6.2 mi West 9.2 mph - N/A   Scattered Clouds
10:50 AM 62.6 °F 46.4 °F 55% 30.01 in 6.2 mi West 6.9 mph - N/A   Scattered Clouds
11:20 AM 62.6 °F 48.2 °F 59% 30.04 in 6.2 mi West 10.4 mph - N/A   Scattered Clouds
11:50 AM 60.8 °F 48.2 °F 63% 30.04 in 6.2 mi West 12.7 mph - N/A   Scattered Clouds
12:20 PM 62.6 °F 48.2 °F 59% 30.04 in 6.2 mi West 10.4 mph - N/A   Scattered Clouds
12:50 PM 64.4 °F 46.4 °F 52% 30.04 in 6.2 mi WNW 8.1 mph - N/A   Partly Cloudy
1:20 PM 64.4 °F 44.6 °F 49% 30.04 in 6.2 mi West 8.1 mph - N/A   Partly Cloudy
1:50 PM 64.4 °F 44.6 °F 49% 30.04 in 6.2 mi Variable 2.3 mph - N/A   Partly Cloudy
2:20 PM 64.4 °F 44.6 °F 49% 30.04 in 6.2 mi South 10.4 mph - N/A   Partly Cloudy
2:50 PM 62.6 °F 46.4 °F 55% 30.04 in 6.2 mi South 11.5 mph - N/A   Partly Cloudy
3:20 PM 64.4 °F 44.6 °F 49% 30.04 in 6.2 mi South 11.5 mph - N/A   Partly Cloudy
3:50 PM 64.4 °F 46.4 °F 52% 30.04 in 6.2 mi SW 9.2 mph - N/A   Partly Cloudy
4:20 PM 62.6 °F 46.4 °F 55% 30.04 in 6.2 mi South 10.4 mph - N/A   Partly Cloudy
5:20 PM 62.6 °F 42.8 °F 48% 30.06 in 6.2 mi South 10.4 mph - N/A   Partly Cloudy
5:50 PM 62.6 °F 44.6 °F 52% 30.06 in 6.2 mi South 6.9 mph - N/A   Partly Cloudy
6:20 PM 60.8 °F 46.4 °F 59% 30.06 in 6.2 mi South 8.1 mph - N/A   Partly Cloudy
6:50 PM 60.8 °F 48.2 °F 63% 30.06 in 6.2 mi South 6.9 mph - N/A   Partly Cloudy
7:20 PM 59.0 °F 46.4 °F 63% 30.06 in 6.2 mi Variable 2.3 mph - N/A   Partly Cloudy
7:50 PM 59.0 °F 46.4 °F 63% 30.06 in 6.2 mi WSW 3.5 mph - N/A   Partly Cloudy
8:20 PM 57.2 °F 46.4 °F 67% 30.06 in - West 4.6 mph - N/A   Clear
8:50 PM 57.2 °F 46.4 °F 67% 30.06 in - NW 3.5 mph - N/A   Clear
9:50 PM 57.2 °F 46.4 °F 67% 30.09 in - NNW 4.6 mph - N/A   Clear
10:20 PM 57.2 °F 46.4 °F 67% 30.09 in - North 3.5 mph - N/A   Clear
10:50 PM 55.4 °F 46.4 °F 72% 30.09 in - NE 3.5 mph - N/A   Clear
11:20 PM 55.4 °F 46.4 °F 72% 30.09 in - East 2.3 mph - N/A   Clear
11:50 PM 53.6 °F 46.4 °F 77% 30.09 in - Calm Calm - N/A   Clear